User: anonymous   Login
Location: Unspecified
(0.0000°N, 0.0000°E)
Time: 01:25:31
(UTC+02:00)
Language:

NOAA 12 - Orbit

View from above orbital plane
View from above orbital plane
View from above satellite
View from above satellite

Ground track
Ground track

The orbit data is extracted from the following two-line orbital elements,

1 21263U 91032A   15111.53756815  .00000156  00000-0  83950-4 0  9999
2 21263 098.6346 139.3439 0014773 062.6904 100.4706 14.25750800244496
Epoch (UTC): 21 April 2015 12:54:05
Eccentricity: 0.0014773
inclination: 98.6346°
perigee height: 795 km
apogee height: 816 km
right ascension of ascending node: 139.3439°
argument of perigee: 62.6904°
revolutions per day: 14.25750800
mean anomaly at epoch: 100.4706°
orbit number at epoch: 24449

The dashed part of the orbit path shows where the satellite is in the earth's shadow,  

DLR